Location: Recife
(8.0585°S, 34.8848°W)
Time: 09:50:17
(UTC-03:00)

SR - Pass Details

Date: 23 April 2026
Orbit: 568 x 852 km, 66.7° (Epoch: 12 May)

Event Time Altitude Azimuth Distance (km) Brightness Sun altitude
Rises 22:06:05 0° 347° (NNW) 3,396 - -71.7°
Reaches altitude 10° 22:08:35 10° 350° (N) 2,456 - -72.3°
Maximum altitude 22:14:14 64° 71° (ENE) 912 - -73.7°
Drops below altitude 10° 22:19:39 10° 151° (SSE) 2,359 - -74.9°
Sets 22:22:01 0° 154° (SSE) 3,252 - -75.5°
